Vertical_Velocity
-1 1 -1 -1 -2 -0 3 -11 -3 -5 -1 -7 -3 -4 -4 -2 2 1 1 2 1 -0 0 -0 -0 -0 0 0 1 0 0 -0 -1 -1 -2 -2 -2 -2 -0 -1 -1 -2 -3 0
-3 -2 -0 -0 -0 0 -0 -1 2 2 -6 -1 0 2 3 -1 0 0 -1 1 0 1 -1 -1 3 0 -1 1 1 2 0 -0 -1 -2 -2 -2 -2 -1 -0 -2 -1 -2 0 -1
-3 0 -0 1 -8 -1 -2 0 -6 0 -23 -1 0 0 -2 -0 -2 -6 -4 -1 -3 -2 -2 3 0 -4 -1 0 1 2 0 -1 -1 -2 -1 -2 -2 -1 -2 -2 -1 -0 -0 -1
-2 -0 4 -18 -1 -2 -2 -4 0 1 -0 -3 -5 -6 0 5 -7 -1 0 -3 1 3 4 -2 0 -1 -1 1 1 1 -1 -1 -2 -0 -1 -2 -2 -2 -2 -2 -2 -2 -2 -1
0 -1 -3 -5 -2 -2 -6 -12 -3 -2 -1 -2 1 -0 -2 -3 8 4 -2 5 3 0 -2 1 0 -1 1 1 1 0 -1 -2 -0 -1 -2 -1 -2 -2 -1 -3 -3 -2 -1 -2
2 0 -2 -5 -4 -1 -2 -13 -2 0 -3 -1 -0 -0 -8 0 3 7 6 4 -2 2 -1 1 1 1 1 1 1 -1 -1 -0 -1 -2 -2 -1 -2 -2 -2 -2 -2 -2 -3 -0
-0 -0 -4 -4 -1 -3 -3 -21 -0 1 0 -0 -2 0 2 4 7 10 4 -0 3 3 -1 1 1 0 1 1 -0 -1 0 -1 -2 -1 -2 -1 -0 -2 -4 -1 -1 -1 -2 1
3 3 -7 -0 -5 -7 -7 -1 0 1 1 -1 -0 3 4 4 2 5 -0 -1 6 -2 1 2 1 1 0 -1 -2 0 -1 -2 -1 -2 -2 -1 -3 -3 -1 -2 -1 -3 -4 -0
-1 0 4 1 8 7 3 -2 -0 -3 -0 -3 -2 -1 -0 1 3 2 0 -1 0 -3 -2 -1 -0 1 -3 -1 -0 -0 -2 -1 -1 -2 -2 -2 -1 -2 -1 -1 -3 -3 -2 -4
-2 -2 -2 -3 -0 16 12 4 8 6 1 -2 -10 2 1 -1 1 1 2 1 0 -0 1 -2 1 -0 2 -1 -1 -1 -1 -1 -1 -2 -4 -1 -0 -0 1 -1 -3 -3 -3 -4
-5 -4 -9 3 3 2 -6 2 -2 9 -0 -2 -0 3 -3 -1 1 2 -0 4 5 2 1 -0 0 -0 0 -0 -0 -1 -1 -1 -1 -2 -1 -1 1 2 -1 -2 -1 -0 -2 -1
2 5 9 -5 -5 2 -0 6 3 0 2 10 -0 -7 2 1 -3 -2 -2 5 5 5 4 2 0 0 0 0 -1 -1 -2 -2 -2 -1 1 1 2 2 -2 -1 0 1 -1 6
-0 -2 3 0 6 3 -4 -2 4 5 6 -1 4 -0 -1 -4 1 -1 6 -8 -3 -3 4 1 -0 1 -1 -1 -0 -2 -3 -2 -2 -2 -2 -1 -2 -3 -4 10 3 -1 -0 -1
10 -3 -4 -5 -6 -2 1 4 4 4 3 5 1 2 1 -5 3 3 3 1 1 1 -5 -2 1 1 -0 -1 -0 -2 -3 -2 -1 -1 -1 -2 -3 -3 -6 -9 -16 -14 1 -4
-6 5 5 -3 -1 2 -2 2 3 5 8 7 3 1 7 3 1 -5 -0 1 -2 -2 -1 1 1 1 1 -0 -0 -1 -1 -0 -0 -1 -2 -2 -1 -0 -2 -3 -2 -4 -8 1
-7 -1 0 3 0 1 2 6 1 2 1 8 4 12 2 2 -0 5 3 2 -6 -2 0 -2 -1 -0 -1 0 0 -1 -2 -1 -0 -1 -2 -2 -1 -3 -4 -2 -3 -1 1 -0
-0 -10 -11 4 0 5 1 1 -1 -1 1 -0 2 12 1 -1 3 2 -0 -0 2 -1 2 -1 -3 -1 0 0 1 -1 -2 -1 -3 -2 -1 -1 -3 -4 -2 -2 -1 -0 1 -1
8 9 2 3 12 1 5 7 6 3 2 -1 -5 4 -1 1 -3 -1 0 1 -1 1 1 -0 -1 -1 -0 -0 0 -1 -1 -2 -1 -1 1 -2 -3 -2 -1 -2 -2 -0 -2 0
3 4 7 3 3 4 4 4 4 4 5 4 -1 3 1 2 2 1 -1 0 3 0 -1 -0 -0 1 1 -0 -0 -2 -1 -1 -0 -0 -2 -2 -2 -1 -2 -1 0 2 -1 -5
2 8 7 4 5 0 1 4 6 3 4 2 3 -2 -0 2 0 -1 1 -2 2 1 1 2 1 -0 0 1 -0 -1 -1 -0 -1 -2 -2 -2 -1 -1 -0 1 1 -2 -1 -2
-3 4 3 9 2 1 2 3 1 -1 4 6 2 -2 1 -1 -0 2 2 -1 1 2 1 2 1 1 0 -1 -1 -1 -1 -3 -2 -1 -2 -1 0 -0 -1 -2 -2 -3 -4 -1
6 2 5 6 5 2 3 1 1 3 1 3 -0 2 -3 -4 1 3 2 1 1 1 1 2 2 0 -1 0 -0 -0 -1 -2 -3 -1 0 -1 -1 -1 -2 -2 -2 0 -0 1
2 4 -0 -5 -2 -1 -1 -1 1 2 -1 -2 -2 -1 1 -0 1 2 -2 -1 3 -0 -0 0 0 0 -1 -1 -1 -1 -1 -1 -1 -1 -1 -1 0 -2 -2 -3 -3 -1 -1 -1
1 -2 -1 1 -0 0 -3 1 0 -2 -1 1 2 1 2 3 2 0 1 1 -2 -1 -2 -0 0 0 -1 -1 -0 0 -0 -1 -1 -1 0 -1 -2 -0 -3 -2 -0 1 0 3
-0 3 3 2 -1 -3 -1 -1 -0 -1 1 1 3 4 5 2 -1 -1 -0 1 1 1 -0 -2 -1 -1 1 0 -0 0 1 0 -1 1 1 0 -0 -3 -3 -2 0 -2 1 1
2 -1 -0 -1 -2 1 3 4 2 2 1 -1 -2 -5 -5 -4 -0 0 1 1 1 0 -0 0 -1 -1 -0 -0 -0 0 1 -2 2 1 -0 -1 -2 -3 -3 -0 1 -0 -1 -1
3 3 1 1 1 -1 -0 -1 -0 -1 1 1 2 2 2 1 -0 -0 0 1 -0 -1 0 1 1 2 2 1 -1 -1 -0 3 2 -1 0 -3 -3 -2 -1 0 -0 0 -1 -1
Height
1351 1348 1349 1351 1355 1357 1361 1355 1370 1363 1365 1360 1359 1362 1361 1363 1371 1377 1383 1387 1389 1391 1398 1405 1412 1417 1422 1427 1431 1435 1439 1442 1443 1444 1445 1446 1445 1445 1442 1439 1437 1434 1432 1429
1356 1347 1350 1356 1353 1353 1353 1353 1358 1359 1358 1351 1353 1355 1360 1361 1364 1368 1375 1379 1385 1389 1394 1401 1406 1411 1418 1424 1428 1432 1435 1437 1439 1440 1441 1441 1441 1440 1438 1435 1432 1430 1427 1424
1355 1354 1356 1360 1352 1353 1351 1350 1350 1358 1346 1348 1351 1349 1350 1354 1355 1358 1364 1370 1375 1380 1388 1395 1400 1408 1416 1421 1426 1428 1431 1433 1435 1436 1437 1437 1437 1436 1433 1431 1428 1425 1422 1419
1356 1361 1362 1341 1336 1336 1340 1338 1340 1338 1338 1340 1338 1339 1340 1343 1346 1351 1358 1366 1374 1378 1382 1391 1398 1405 1413 1419 1423 1425 1427 1430 1431 1433 1433 1434 1433 1431 1429 1427 1424 1421 1419 1415
1352 1349 1344 1340 1338 1336 1336 1337 1330 1333 1334 1332 1335 1337 1337 1341 1343 1344 1349 1358 1367 1371 1381 1389 1394 1403 1411 1416 1420 1422 1424 1427 1429 1430 1430 1430 1428 1427 1426 1423 1420 1418 1415 1412
1350 1348 1341 1329 1323 1325 1332 1340 1327 1324 1324 1327 1333 1345 1335 1337 1341 1345 1350 1357 1362 1368 1377 1387 1395 1402 1409 1414 1417 1419 1422 1425 1426 1427 1427 1426 1425 1423 1422 1420 1418 1415 1412 1409
1338 1340 1331 1318 1316 1316 1351 1341 1320 1319 1320 1325 1331 1334 1334 1334 1339 1344 1349 1355 1362 1369 1378 1386 1394 1401 1407 1412 1415 1418 1420 1422 1423 1424 1424 1424 1422 1420 1419 1417 1415 1412 1408 1405
1339 1337 1337 1320 1322 1323 1319 1322 1321 1320 1321 1325 1329 1334 1336 1338 1341 1344 1348 1357 1364 1370 1379 1387 1394 1401 1406 1410 1414 1417 1418 1420 1421 1421 1421 1421 1419 1418 1417 1414 1412 1408 1405 1401
1356 1338 1334 1334 1329 1323 1322 1321 1319 1320 1320 1323 1329 1335 1341 1344 1346 1350 1354 1358 1364 1371 1379 1388 1395 1400 1405 1409 1412 1415 1417 1418 1419 1419 1419 1418 1417 1416 1414 1412 1409 1406 1402 1398
1349 1339 1340 1334 1328 1328 1327 1327 1320 1317 1315 1321 1326 1336 1339 1345 1351 1354 1357 1361 1367 1373 1379 1386 1393 1399 1404 1408 1411 1413 1415 1416 1417 1417 1417 1417 1415 1413 1412 1409 1407 1404 1401 1397
1343 1343 1339 1330 1337 1337 1335 1330 1326 1323 1316 1317 1322 1331 1337 1345 1352 1356 1361 1365 1370 1375 1381 1386 1393 1399 1403 1407 1409 1412 1413 1415 1416 1416 1416 1415 1414 1411 1409 1408 1407 1404 1401 1398
1354 1360 1362 1348 1341 1337 1332 1330 1326 1325 1322 1319 1318 1328 1336 1342 1351 1358 1363 1369 1374 1379 1383 1388 1394 1399 1403 1406 1408 1411 1412 1414 1415 1415 1415 1413 1412 1410 1408 1406 1404 1402 1400 1397
1375 1366 1362 1348 1342 1339 1335 1332 1327 1323 1321 1319 1322 1323 1333 1342 1350 1358 1363 1368 1377 1382 1388 1392 1395 1398 1402 1405 1408 1410 1412 1413 1414 1414 1413 1411 1409 1407 1405 1405 1403 1400 1396 1392
1365 1360 1348 1346 1343 1338 1335 1331 1326 1323 1322 1323 1319 1328 1334 1341 1353 1358 1364 1368 1377 1383 1388 1394 1396 1399 1402 1405 1407 1409 1411 1412 1413 1412 1412 1410 1408 1406 1404 1402 1399 1396 1394 1390
1359 1357 1352 1347 1344 1339 1336 1332 1328 1326 1327 1322 1326 1330 1336 1341 1347 1357 1366 1371 1378 1384 1389 1395 1398 1401 1403 1406 1408 1409 1410 1411 1411 1411 1410 1410 1408 1405 1403 1402 1400 1396 1392 1389
1357 1349 1345 1345 1340 1338 1337 1333 1329 1331 1335 1336 1335 1334 1341 1347 1354 1361 1367 1374 1379 1385 1390 1395 1399 1403 1406 1408 1408 1409 1410 1411 1411 1411 1410 1409 1407 1405 1403 1401 1399 1396 1391 1386
1356 1351 1349 1345 1343 1336 1333 1333 1331 1336 1338 1342 1345 1347 1343 1355 1360 1365 1371 1377 1383 1388 1392 1396 1401 1405 1407 1408 1409 1409 1411 1411 1411 1411 1410 1408 1406 1405 1404 1401 1399 1395 1391 1387
1362 1356 1351 1345 1342 1335 1340 1339 1338 1341 1341 1343 1352 1354 1357 1362 1366 1371 1376 1381 1386 1391 1394 1398 1402 1405 1408 1409 1409 1410 1411 1412 1412 1411 1410 1408 1407 1406 1404 1401 1399 1395 1392 1387
1366 1361 1358 1354 1344 1348 1345 1347 1348 1349 1349 1352 1357 1360 1364 1370 1374 1377 1381 1387 1391 1393 1397 1400 1403 1406 1408 1409 1410 1411 1412 1411 1412 1411 1409 1409 1408 1407 1404 1401 1399 1396 1392 1387
1372 1367 1359 1353 1353 1351 1356 1359 1359 1358 1360 1365 1364 1369 1372 1376 1381 1384 1388 1390 1394 1397 1400 1402 1404 1407 1408 1409 1410 1411 1411 1412 1412 1411 1410 1409 1408 1406 1404 1402 1399 1396 1392 1388
1381 1378 1373 1366 1364 1367 1369 1368 1370 1371 1374 1375 1372 1375 1378 1382 1388 1392 1393 1394 1398 1400 1402 1404 1406 1407 1408 1410 1410 1411 1411 1412 1413 1412 1411 1409 1408 1406 1404 1401 1399 1396 1393 1389
1392 1387 1383 1380 1377 1374 1376 1378 1381 1381 1381 1381 1382 1383 1384 1389 1394 1394 1395 1398 1400 1402 1404 1406 1407 1407 1409 1410 1411 1412 1412 1412 1413 1412 1411 1409 1408 1406 1404 1402 1399 1396 1391 1388
1395 1390 1388 1387 1384 1384 1387 1388 1388 1387 1387 1388 1390 1391 1393 1394 1395 1396 1397 1401 1402 1403 1406 1407 1408 1408 1410 1411 1412 1413 1413 1413 1413 1413 1411 1410 1408 1406 1404 1401 1399 1397 1392 1387
1403 1400 1398 1395 1394 1395 1394 1395 1395 1395 1396 1396 1395 1396 1397 1396 1396 1398 1400 1401 1403 1405 1407 1408 1409 1409 1410 1411 1413 1413 1413 1413 1413 1412 1411 1410 1409 1407 1405 1403 1400 1396 1392 1388
1408 1406 1404 1403 1402 1402 1402 1402 1401 1401 1401 1400 1399 1398 1397 1397 1400 1402 1403 1404 1405 1406 1408 1409 1410 1410 1411 1411 1412 1413 1412 1412 1412 1412 1411 1410 1408 1407 1406 1403 1399 1395 1392 1388
1412 1410 1408 1407 1406 1406 1405 1404 1402 1401 1401 1400 1399 1400 1401 1403 1404 1404 1404 1405 1405 1406 1408 1409 1409 1410 1410 1411 1411 1412 1411 1412 1412 1411 1410 1410 1408 1406 1405 1402 1398 1395 1391 1387
1417 1415 1413 1412 1410 1410 1409 1409 1408 1408 1407 1406 1404 1404 1404 1403 1404 1404 1404 1405 1405 1406 1407 1408 1409 1409 1409 1409 1410 1411 1411 1411 1410 1410 1410 1408 1408 1406 1404 1400 1397 1394 1390 1387